Home > Weather > Manila > Past weeks

Flag for Philippines Weather for the Past 2 Weeks in Manila, Philippines

Now
86 °F

Scattered clouds.


Feels Like: 97 °F
Forecast: 81 / 94 °F
Wind: 3 mph from Northwest

Location: National Airport

Current Time: Apr 29, 2016 at 10:04:02 AM

Latest Report: Apr 29, 2016 at 9:00 AM


Visibility: N/A

Pressure: 29.86 "Hg

Humidity: 75%

Dew Point: 77 °F

Location of ManilaLocation

Historic Weather in Manila — Graph

°F

Manila Temperature Yesterday

Maximum temperature yesterday: 93 °F (at 2:00 PM)
Minimum temperature yesterday: 79 °F (at 3:00 AM)
Average temperature yesterday: 87 °F

High & Low Weather Summary for the Past Weeks

 TemperatureHumidityPressure
High99 °F (Apr 14, 1:00 PM)100% (Apr 20, 12:00 AM)29.98 "Hg (Apr 20, 12:00 AM)
Low79 °F (Apr 14, 12:00 PM)18% (Apr 20, 1:00 AM)29.71 "Hg (Apr 27, 3:00 PM)
Average88 °F62%29.85 "Hg
* Reported Apr 14 8:00 AM — Apr 29 8:00 AM, Manila, Weather by CustomWeather, © 2016

Note: Actual official high and low records may vary slightly from our data, if they occured in-between our weather recording intervals... More about our weather records

Advertising

Manila Weather History for the Previous 24 Hours

Scroll right to see more
 ConditionsComfort  
Time TempWeatherWind HumidityBarometerVisibility
8:00 AM
Fri, Apr 29
86 °FScattered clouds.3 mph75%29.86 "HgN/A
7:00 AM84 °FBroken clouds.5 mph79%29.83 "HgN/A
6:00 AM84 °FBroken clouds.No wind84%29.83 "HgN/A
5:00 AM84 °FPassing clouds.No wind84%29.83 "HgN/A
4:00 AM84 °FPassing clouds.2 mph79%29.80 "HgN/A
3:00 AM82 °FPassing clouds.No wind84%29.80 "HgN/A
2:00 AM84 °FPassing clouds.3 mph79%29.80 "HgN/A
1:00 AM86 °FPassing clouds.1 mph84%29.83 "HgN/A
12:00 AM88 °FPassing clouds.1 mph75%29.83 "HgN/A
11:00 PM
Thu, Apr 28
88 °FPassing clouds.1 mph66%29.86 "HgN/A
10:00 PM86 °FPassing clouds.No wind66%29.86 "HgN/A
9:00 PM86 °FPassing clouds.2 mph70%29.83 "HgN/A
8:00 PM88 °FThundershowers. Passing clouds.3 mph70%29.83 "Hg5 mi
7:00 PM88 °FThundershowers. Passing clouds.8 mph70%29.80 "HgN/A
6:00 PM88 °FScattered clouds.9 mph70%29.77 "HgN/A
5:00 PM90 °FPassing clouds.15 mph63%29.77 "HgN/A
4:00 PM91 °FPassing clouds.14 mph56%29.74 "HgN/A
3:00 PM93 °FPassing clouds.14 mph56%29.74 "HgN/A
2:00 PM93 °FPassing clouds.7 mph49%29.74 "HgN/A
1:00 PM91 °FPassing clouds.12 mph56%29.77 "HgN/A
12:00 PM91 °FPassing clouds.9 mph56%29.80 "Hg6 mi
11:00 AM90 °FPassing clouds.3 mph67%29.83 "HgN/A
10:00 AM90 °FPassing clouds.3 mph71%29.83 "HgN/A
Weather by CustomWeather, © 2016

See weather overviewHow to use our weather pages